Flight Track Log - Related Links

Times and Time Zones

All times are in EDT time to prevent confusion due to time zone crossing. See the SKW2685 flight status page for this flight to view local times or setup timezone preferences in your user account.

Time Position Orientation Groundspeed Altitude Reporting Facility
EDT Latitude Longitude Course Direction KTS MPH feet Rate Location/Type
Sat 07:06:58 PM 33.9350 -118.4361 264° West 156 180 1,500  Level Los Angeles Center
Sat 07:07:59 PM 33.9261 -118.5308 264° West 250 288 3,900 2,341 Climbing Los Angeles Center
Sat 07:09:01 PM 33.9172 -118.6200 263° West 268 308 6,300 2,516 Climbing Los Angeles Center
Sat 07:10:03 PM 33.9075 -118.7225 264° West 285 328 9,100 2,000 Climbing Los Angeles Center
Sat 07:11:04 PM 33.9014 -118.7903 264° West 289 333 10,400 1,268 Climbing Los Angeles Center
Sat 07:12:06 PM 33.9603 -118.8997 303° West 337 388 11,700 1,355 Climbing Los Angeles Center
Sat 07:13:08 PM 34.0211 -118.9947 308° West 354 407 13,200 1,645 Climbing Los Angeles Center
Sat 07:14:10 PM 34.0953 -119.1119 307° West 368 423 15,100 1,610 Climbing Los Angeles Center
Sat 07:15:11 PM 34.1578 -119.2108 307° West 372 428 16,500 1,268 Climbing Los Angeles Center
Sat 07:16:13 PM 34.2217 -119.3122 307° West 382 440 17,700 1,161 Climbing Los Angeles Center
Sat 07:17:15 PM 34.2850 -119.4144 307° West 382 440 18,900 1,113 Climbing Los Angeles Center
Sat 07:18:17 PM 34.3486 -119.5167 307° West 382 440 20,000 1,220 Climbing Los Angeles Center
Sat 07:19:18 PM 34.4144 -119.6208 307° West 388 447 21,400 1,512 Climbing Los Angeles Center
Sat 07:20:20 PM 34.4769 -119.7194 308° West 372 428 23,100 1,500 Climbing Los Angeles Center
Sat 07:21:22 PM 34.5661 -119.8192 317° Northwest 369 425 24,500 1,073 Climbing Los Angeles Center
Sat 07:22:23 PM 34.6411 -119.8811 326° Northwest 380 437 25,300 878 Climbing Los Angeles Center
Sat 07:23:25 PM 34.7497 -119.9689 326° Northwest 388 447 26,300 968 Climbing Los Angeles Center
Sat 07:24:27 PM 34.8394 -120.0442 325° Northwest 392 451 27,300 927 Climbing Los Angeles Center
Sat 07:25:28 PM 34.9306 -120.1175 327° Northwest 399 459 28,200 732 Climbing Los Angeles Center
Sat 07:26:30 PM 35.0211 -120.1942 325° Northwest 401 461 28,800 488 Climbing Los Angeles Center
Sat 07:27:31 PM 35.0958 -120.2561 326° Northwest 408 470 29,200 532 Climbing Los Angeles Center
Sat 07:28:34 PM 35.2089 -120.3514 325° Northwest 415 478 29,900 387 Climbing Los Angeles Center
Sat 07:29:35 PM 35.3267 -120.4500 326° Northwest 438 504 30,000 49 Climbing Los Angeles Center
Sat 07:30:37 PM 35.4278 -120.5411 324° Northwest 466 536 30,000  Level Los Angeles Center
Sat 07:31:39 PM 35.5314 -120.6261 326° Northwest 454 522 30,000  Level Los Angeles Center
Sat 07:32:41 PM 35.6344 -120.7128 326° Northwest 452 520 30,000  Level Los Angeles Center
Sat 07:33:24 PM 35.7114 -120.7781 325° Northwest 457 526 30,000  Level Oakland Center
Sat 07:34:25 PM 35.8175 -120.8683 325° Northwest 459 528 30,000  Level Oakland Center
Sat 07:35:26 PM 35.9228 -120.9592 325° Northwest 461 531 30,000 -836 Level Oakland Center
Sat 07:36:27 PM 36.0317 -121.0506 326° Northwest 472 543 28,300 -1,918 Descending Oakland Center
Sat 07:37:28 PM 36.1417 -121.1447 325° Northwest 478 550 26,100 -2,164 Descending Oakland Center
Sat 07:38:29 PM 36.2469 -121.2381 324° Northwest 464 534 23,900 -2,390 Descending Oakland Center
Sat 07:39:31 PM 36.3689 -121.3425 325° Northwest 441 507 21,200 -2,390 Descending Oakland Center
Sat 07:40:32 PM 36.4669 -121.4194 328° Northwest 418 481 19,000 -1,574 Descending Oakland Center
Sat 07:41:33 PM 36.5739 -121.4419 350° North 381 438 18,000 -492 Descending Oakland Center
Sat 07:42:34 PM 36.6761 -121.4667 349° North 374 430 18,000 -148 Level Oakland Center
Sat 07:43:35 PM 36.7797 -121.4947 348° North 379 436 17,700 -1,082 Descending Oakland Center
Sat 07:44:36 PM 36.8722 -121.5181 349° North 360 414 15,800 -2,115 Descending Oakland Center
Sat 07:45:37 PM 36.9642 -121.5433 348° North 341 392 13,400 -2,115 Descending Oakland Center
Sat 07:46:38 PM 37.0517 -121.5703 346° North 325 374 11,500 -1,869 Descending Oakland Center
Sat 07:47:39 PM 37.1106 -121.6489 313° West 293 337 9,600 -2,357 Descending Oakland Center
Sat 07:48:30 PM 37.1667 -121.7167 316° Northwest 275 316 7,100 -2,432 Descending Northern Cal TRACON
Sat 07:49:30 PM 37.2167 -121.7833 313° West 252 290 5,100 -1,950 Descending Northern Cal TRACON
Sat 07:50:30 PM 37.2667 -121.8167 332° Northwest 198 228 3,200 -1,750 Descending Northern Cal TRACON
Sat 07:51:30 PM 37.3000 -121.8667 310° West 161 185 1,600 -1,150 Descending Northern Cal TRACON
Sat 07:52:30 PM 37.3333 -121.9000 322° Northwest 134 154 900 -662 Descending Northern Cal TRACON
Sat 07:53:46 PM 37.3586 -121.9275 319° Northwest 139 160 100 -632 Descending Oakland Center
Sat 07:55:00 PM 37.3627 -121.9291 North  Level Estimated

Login

Don't have an account? Register now (free) for customized features, flight alerts, and more!